Location: Silverdale
(47.6506°N, 122.6941°W)
Time: 03:45:51
(UTC+00:00)

Courier 1B Rocket - Pass Details

Date: 08 October 2022
Orbit: 920 x 1202 km, 28.3° (Epoch: 28 November)

Event Time Altitude Azimuth Distance (km) Brightness Sun altitude
Rises 02:04:43 0° 226° (SW) 3,884 9.0 -5.4°
Reaches altitude 10° 02:09:11 10° 202° (SSW) 2,859 7.8 -6.1°
Maximum altitude 02:12:17 13° 175° (S) 2,566 7.2 -6.6°
Drops below altitude 10° 02:15:18 10° 148° (SSE) 2,767 7.1 -7.1°
Enters shadow 02:18:49 - 126° (SE) 3,484 7.4 -7.7°
